This is the latest recevied weather packets stored in our database for station/object K0NV. If no packets are shown the sender has not sent any weather packets the latest 10 day(s).
| Time | Temp. | Humidity | Pressure | Rain* | Wind** | Luminosity | Snow |
|---|---|---|---|---|---|---|---|
| 1777851480 | 23.89° C | 44% | 1013.1 hPa | 0 mm | - | 113 W/m² | - |
| 1777851176 | 23.89° C | 42% | 1013.4 hPa | 0 mm | - | 112 W/m² | - |
| 1777850873 | 24.44° C | 40% | 1013.2 hPa | 0 mm | - | 111 W/m² | - |
| 1777850570 | 24.44° C | 39% | 1013.4 hPa | 0 mm | - | 93 W/m² | - |
| 1777850268 | 24.44° C | 38% | 1013.2 hPa | 0 mm | - | 88 W/m² | - |
| 1777849965 | 25° C | 39% | 1013.4 hPa | 0 mm | - | 109 W/m² | - |
| 1777849661 | 25° C | 39% | 1013.4 hPa | 0 mm | - | 150 W/m² | - |
| 1777849358 | 25° C | 38% | 1013.1 hPa | 0 mm | - | 227 W/m² | - |
| 1777849056 | 25.56° C | 39% | 1013.2 hPa | 0 mm | - | 239 W/m² | - |
| 1777848756 | 25.56° C | 38% | 1013.2 hPa | 0 mm | - | 262 W/m² | - |
| 1777848453 | 25.56° C | 37% | 1013.4 hPa | 0 mm | - | 277 W/m² | - |
| 1777848151 | 25.56° C | 38% | 1013.2 hPa | 0 mm | - | 282 W/m² | - |
| 1777847848 | 25° C | 39% | 1013.4 hPa | 0 mm | - | 264 W/m² | - |
| 1777847545 | 25.56° C | 38% | 1013.4 hPa | 0 mm | - | 304 W/m² | - |
| 1777847242 | 25.56° C | 39% | 1013.5 hPa | 0 mm | - | 360 W/m² | - |
| 1777846939 | 25.56° C | 39% | 1013.6 hPa | 0 mm | - | 336 W/m² | - |
| 1777846638 | 25.56° C | 39% | 1013.7 hPa | 0 mm | - | 374 W/m² | - |
| 1777846335 | 25.56° C | 40% | 1013.9 hPa | 0 mm | - | 402 W/m² | - |
| 1777846031 | 25.56° C | 39% | 1013.9 hPa | 0 mm | - | 411 W/m² | - |
| 1777845728 | 25.56° C | 40% | 1013.8 hPa | 0 mm | - | 423 W/m² | - |
| 1777845425 | 25.56° C | 39% | 1014.1 hPa | 0 mm | - | 436 W/m² | - |
| 1777845122 | 25.56° C | 39% | 1014 hPa | 0 mm | - | 461 W/m² | - |
| 1777844821 | 26.11° C | 39% | 1014 hPa | 0 mm | - | 427 W/m² | - |
| 1777844515 | 26.11° C | 39% | 1013.9 hPa | 0 mm | - | 494 W/m² | - |
| 1777844210 | 26.11° C | 38% | 1014 hPa | 0 mm | - | 519 W/m² | - |
* Rain latest hour (hover to see other rain measurements)
** Current wind speed in m/s (hover to see current wind gust speed)